Caldwell, NJ

4:04 AM EDT on October 17, 2017 (GMT -0400)
Essex County

Weather History for KCDW - February, 2014

Change the Weather History Date:

Sunday, February 23, 2014

  Actual Average Record
Temperature  
Mean Temperature 38 °F -  
Max Temperature 51 °F 47 °F 68 °F (2017)
Min Temperature 25 °F 24 °F 1 °F (1972)
Degree Days  
Heating Degree Days 27    
Moisture  
Dew Point 25 °F    
Average Humidity 59    
Maximum Humidity 88    
Minimum Humidity 38    
Precipitation  
Precipitation 0.00 in - - ()
Sea Level Pressure  
Sea Level Pressure 29.96 in    
Wind  
Wind Speed 1 mph (WNW)    
Max Wind Speed 13 mph    
Max Gust Speed 26 mph    
Visibility 10 miles    
Events      
Averages and records for this station are not official NWS values.
T = Trace of Precipitation, MM = Missing Value Source: NWS Daily Summary

Daily Weather History Graph

Daily Weather History Graph

Search for Another Location

Airport or City:

Trip Planner

Search our weather history database for the weather conditions in past years. The results will help you decide how hot, cold, wet, or windy it might be!

Date:

Astronomy

Feb. 23, 2014 Rise Set
Actual Time 6:40 AM EST 5:41 PM EST
Civil Twilight 6:12 AM EST 6:09 PM EST
Nautical Twilight 5:40 AM EST 6:40 PM EST
Astronomical Twilight 5:08 AM EST 7:12 PM EST
Moon 1:37 AM EST (2/23) 11:40 AM EST (2/23)
Length of Visible Light 11h 56m
Length of Day
11h 01m
Last Quarter, 39% of the Moon is Illuminated
Feb 23
Last Quarter
Mar 1
New
Mar 8
First Quarter
Mar 16
Full
Mar 23
Last Quarter

Hourly Weather History & Observations

Time (EST) Temp. Windchill Dew Point Humidity Pressure Visibility Wind Dir Wind Speed Gust Speed Precip Events Conditions
12:53 AM 28.9 °F - 24.1 °F 82% 30.03 in 10.0 mi Calm Calm - N/A   Clear
1:53 AM 28.0 °F - 23.0 °F 81% 30.02 in 10.0 mi Calm Calm - N/A   Clear
2:53 AM 27.0 °F - 21.9 °F 81% 30.03 in 10.0 mi Calm Calm - N/A   Clear
3:53 AM 27.0 °F - 23.0 °F 85% 30.03 in 10.0 mi Calm Calm - N/A   Clear
4:53 AM 25.0 °F - 21.0 °F 85% 30.03 in 10.0 mi Calm Calm - N/A   Clear
5:53 AM 26.1 °F - 21.0 °F 81% 30.04 in 10.0 mi Calm Calm - N/A   Clear
6:53 AM 25.0 °F - 21.9 °F 88% 30.05 in 10.0 mi Calm Calm - N/A   Clear
7:53 AM 30.0 °F - 26.1 °F 85% 30.06 in 10.0 mi Calm Calm - N/A   Clear
8:53 AM 37.0 °F - 26.1 °F 65% 30.03 in 10.0 mi Calm Calm - N/A   Clear
9:53 AM 41.0 °F - 28.0 °F 60% 30.03 in 10.0 mi Calm Calm - N/A   Clear
10:53 AM 46.0 °F - 25.0 °F 44% 30.01 in 10.0 mi Calm Calm - N/A   Clear
11:53 AM 48.0 °F - 26.1 °F 42% 29.99 in 10.0 mi Calm Calm - N/A   Clear
12:53 PM 50.0 °F - 26.1 °F 39% 29.94 in 10.0 mi Calm Calm - N/A   Clear
1:53 PM 51.1 °F - 26.1 °F 38% 29.92 in 10.0 mi Calm Calm - N/A   Clear
2:53 PM 50.0 °F - 25.0 °F 38% 29.92 in 10.0 mi WNW 4.6 mph - N/A   Clear
3:53 PM 50.0 °F - 25.0 °F 38% 29.91 in 10.0 mi Variable 3.5 mph - N/A   Clear
4:53 PM 48.0 °F - 25.0 °F 41% 29.89 in 10.0 mi Calm Calm - N/A   Overcast
5:53 PM 46.0 °F - 26.1 °F 46% 29.89 in 10.0 mi Calm Calm - N/A   Mostly Cloudy
6:53 PM 46.0 °F - 26.1 °F 46% 29.91 in 10.0 mi Calm Calm - N/A   Overcast
7:53 PM 42.1 °F - 27.0 °F 55% 29.90 in 10.0 mi Calm Calm - N/A   Overcast
8:53 PM 41.0 °F - 27.0 °F 57% 29.88 in 10.0 mi Calm Calm - N/A   Overcast
9:53 PM 45.0 °F 42.6 °F 27.0 °F 49% 29.88 in 10.0 mi Variable 4.6 mph - N/A   Overcast
10:53 PM 44.1 °F 37.7 °F 26.1 °F 49% 29.89 in 10.0 mi NW 12.7 mph 26.5 mph N/A   Overcast
11:53 PM 43.0 °F 36.8 °F 24.1 °F 47% 29.87 in 10.0 mi WNW 11.5 mph - 0.00 in   Overcast